Stündliche Wetter Hamburg

Heute, 11 April, Sonntag

Zeit Temperatur Niederschläge Wind Luftdruck Luftfeuchtigkeit
00:00 +3°C° 0.8 mm 5 m/S 757 mmHg 89%
01:00 +3°C° 0 mm 5 m/S 756 mmHg 94%
02:00 +3°C° 1.4 mm 5 m/S 756 mmHg 95%
03:00 +5°C° 1.4 mm 5 m/S 755 mmHg 96%
04:00 +5°C° 1.4 mm 4 m/S 754 mmHg 97%
05:00 +5°C° 0.6 mm 4 m/S 754 mmHg 97%
06:00 +6°C° 0.6 mm 4 m/S 754 mmHg 97%
07:00 +6°C° 0 mm 4 m/S 754 mmHg 96%
08:00 +7°C° 0.1 mm 4 m/S 754 mmHg 95%
09:00 +8°C° 0.1 mm 4 m/S 754 mmHg 94%
10:00 +8°C° 0.1 mm 4 m/S 754 mmHg 93%
11:00 +8°C° 0 mm 4 m/S 754 mmHg 91%
12:00 +8°C° 0 mm 5 m/S 755 mmHg 88%
13:00 +7°C° 0 mm 5 m/S 755 mmHg 86%
14:00 +6°C° 0 mm 5 m/S 756 mmHg 84%
15:00 +6°C° 0 mm 5 m/S 756 mmHg 82%
16:00 +5°C° 0 mm 5 m/S 757 mmHg 80%
17:00 +3°C° 0.1 mm 5 m/S 757 mmHg 81%
18:00 +2°C° 0.1 mm 5 m/S 758 mmHg 83%
19:00 +3°C° 0.1 mm 4 m/S 758 mmHg 84%
20:00 +1°C° 0 mm 4 m/S 759 mmHg 84%
21:00 +1°C° 0 mm 4 m/S 760 mmHg 84%
22:00 +1°C° 0 mm 4 m/S 760 mmHg 84%
23:00 +1°C° 0 mm 5 m/S 761 mmHg 80%

Morgen, 12 April, Montag

Zeit Temperatur Niederschläge Wind Luftdruck Luftfeuchtigkeit
00:00 +1°C° 0 mm 5 m/S 761 mmHg 75%
01:00 +2°C° 0 mm 5 m/S 762 mmHg 70%
02:00 +1°C° 0 mm 5 m/S 762 mmHg 70%
03:00 +1°C° 0 mm 4 m/S 763 mmHg 70%
04:00 +1°C° 0 mm 4 m/S 763 mmHg 70%
05:00 +1°C° 0 mm 4 m/S 764 mmHg 72%
06:00 +2°C° 0 mm 3 m/S 764 mmHg 73%
07:00 +2°C° 0 mm 3 m/S 765 mmHg 74%
08:00 +3°C° 0 mm 3 m/S 765 mmHg 67%
09:00 +4°C° 0 mm 4 m/S 766 mmHg 60%
10:00 +6°C° 0 mm 4 m/S 766 mmHg 53%
11:00 +6°C° 0 mm 4 m/S 766 mmHg 49%
12:00 +7°C° 0 mm 5 m/S 766 mmHg 46%
13:00 +8°C° 0 mm 5 m/S 766 mmHg 43%
14:00 +7°C° 0.1 mm 5 m/S 766 mmHg 44%
15:00 +7°C° 0.1 mm 5 m/S 766 mmHg 46%
16:00 +7°C° 0.1 mm 5 m/S 766 mmHg 48%
17:00 +6°C° 0.1 mm 5 m/S 767 mmHg 55%
18:00 +4°C° 0.1 mm 4 m/S 767 mmHg 62%
19:00 +3°C° 0.1 mm 3 m/S 768 mmHg 69%
20:00 +2°C° 0 mm 3 m/S 768 mmHg 74%
21:00 +1°C° 0 mm 3 m/S 768 mmHg 79%
22:00 0°C° 0 mm 3 m/S 768 mmHg 84%
23:00 0°C° 0 mm 3 m/S 768 mmHg 86%

übermorgen, 13 April, Dienstag

Zeit Temperatur Niederschläge Wind Luftdruck Luftfeuchtigkeit
00:00 0°C° 0 mm 3 m/S 769 mmHg 87%
01:00 0°C° 0 mm 3 m/S 769 mmHg 89%
02:00 -1°C° 0 mm 3 m/S 769 mmHg 91%
03:00 -1°C° 0 mm 3 m/S 769 mmHg 93%
04:00 -1°C° 0 mm 3 m/S 769 mmHg 95%
05:00 0°C° 0 mm 3 m/S 769 mmHg 91%
06:00 +1°C° 0 mm 3 m/S 770 mmHg 87%
07:00 0°C° 0 mm 4 m/S 770 mmHg 83%
08:00 +3°C° 0.1 mm 4 m/S 770 mmHg 75%
09:00 +5°C° 0.1 mm 5 m/S 770 mmHg 66%
10:00 +5°C° 0.1 mm 6 m/S 771 mmHg 58%
11:00 +7°C° 0.2 mm 6 m/S 771 mmHg 54%
12:00 +7°C° 0.2 mm 6 m/S 771 mmHg 51%
13:00 +7°C° 0.2 mm 6 m/S 771 mmHg 48%
14:00 +7°C° 0 mm 6 m/S 771 mmHg 48%
15:00 +7°C° 0 mm 6 m/S 771 mmHg 47%
16:00 +7°C° 0 mm 6 m/S 771 mmHg 47%
17:00 +6°C° 0 mm 5 m/S 771 mmHg 56%
18:00 +3°C° 0 mm 5 m/S 771 mmHg 65%
19:00 +3°C° 0 mm 4 m/S 771 mmHg 74%
20:00 +2°C° 0 mm 3 m/S 772 mmHg 79%
21:00 +1°C° 0 mm 3 m/S 772 mmHg 85%
22:00 +1°C° 0 mm 2 m/S 772 mmHg 91%
23:00 +1°C° 0 mm 2 m/S 772 mmHg 91%

14 April, Mittwoch

Zeit Temperatur Niederschläge Wind Luftdruck Luftfeuchtigkeit
00:00 +1°C° 0 mm 2 m/S 772 mmHg 91%
01:00 -1°C° 0 mm 2 m/S 772 mmHg 92%
02:00 -1°C° 0 mm 2 m/S 772 mmHg 92%
03:00 -1°C° 0 mm 2 m/S 772 mmHg 92%
04:00 -1°C° 0 mm 2 m/S 772 mmHg 92%
05:00 +1°C° 0 mm 2 m/S 772 mmHg 88%
06:00 +1°C° 0 mm 2 m/S 772 mmHg 83%
07:00 +2°C° 0 mm 2 m/S 772 mmHg 78%
08:00 +3°C° 0 mm 3 m/S 772 mmHg 69%
09:00 +4°C° 0 mm 3 m/S 772 mmHg 60%
10:00 +6°C° 0 mm 4 m/S 772 mmHg 51%
11:00 +7°C° 0 mm 4 m/S 772 mmHg 49%
12:00 +7°C° 0 mm 4 m/S 771 mmHg 48%
13:00 +7°C° 0 mm 4 m/S 771 mmHg 46%
14:00 +7°C° 0.1 mm 4 m/S 771 mmHg 50%
15:00 +7°C° 0.1 mm 4 m/S 771 mmHg 53%
16:00 +7°C° 0.1 mm 4 m/S 771 mmHg 56%
17:00 +7°C° 0.2 mm 3 m/S 771 mmHg 65%
18:00 +4°C° 0.2 mm 3 m/S 771 mmHg 74%
19:00 +4°C° 0.2 mm 2 m/S 771 mmHg 83%
20:00 +3°C° 0 mm 2 m/S 772 mmHg 86%
21:00 +2°C° 0 mm 2 m/S 772 mmHg 88%
22:00 +1°C° 0 mm 2 m/S 772 mmHg 91%
23:00 +1°C° 0 mm 2 m/S 772 mmHg 90%

15 April, Donnerstag

Zeit Temperatur Niederschläge Wind Luftdruck Luftfeuchtigkeit
00:00 +1°C° 0 mm 2 m/S 772 mmHg 90%
01:00 -1°C° 0 mm 2 m/S 772 mmHg 89%
02:00 -1°C° 0 mm 2 m/S 773 mmHg 88%
03:00 -1°C° 0 mm 2 m/S 773 mmHg 87%
04:00 -1°C° 0 mm 2 m/S 773 mmHg 86%
05:00 +1°C° 0 mm 2 m/S 773 mmHg 85%
06:00 +2°C° 0 mm 2 m/S 773 mmHg 83%
07:00 +2°C° 0 mm 2 m/S 773 mmHg 82%
08:00 +4°C° 0 mm 2 m/S 773 mmHg 74%
09:00 +5°C° 0 mm 3 m/S 773 mmHg 66%
10:00 +6°C° 0 mm 4 m/S 773 mmHg 59%
11:00 +7°C° 0 mm 4 m/S 773 mmHg 54%
12:00 +7°C° 0 mm 5 m/S 773 mmHg 50%
13:00 +8°C° 0 mm 5 m/S 773 mmHg 45%
14:00 +8°C° 0 mm 5 m/S 773 mmHg 48%
15:00 +7°C° 0 mm 5 m/S 773 mmHg 50%
16:00 +7°C° 0 mm 5 m/S 773 mmHg 53%
17:00 +6°C° 0 mm 4 m/S 773 mmHg 58%
18:00 +5°C° 0 mm 4 m/S 773 mmHg 62%
19:00 +5°C° 0 mm 3 m/S 773 mmHg 67%
20:00 +4°C° 0 mm 3 m/S 773 mmHg 70%
21:00 +4°C° 0 mm 3 m/S 773 mmHg 73%
22:00 +4°C° 0 mm 2 m/S 773 mmHg 76%
23:00 +3°C° 0 mm 3 m/S 773 mmHg 77%

16 April, Freitag

Zeit Temperatur Niederschläge Wind Luftdruck Luftfeuchtigkeit
00:00 +3°C° 0 mm 3 m/S 773 mmHg 79%
01:00 +2°C° 0 mm 3 m/S 773 mmHg 80%
02:00 +2°C° 0 mm 3 m/S 773 mmHg 81%
03:00 +1°C° 0 mm 3 m/S 773 mmHg 82%
04:00 +1°C° 0 mm 3 m/S 773 mmHg 83%
05:00 +2°C° 0 mm 3 m/S 773 mmHg 82%
06:00 +2°C° 0 mm 3 m/S 773 mmHg 81%
07:00 +3°C° 0 mm 4 m/S 773 mmHg 79%
08:00 +5°C° 0 mm 4 m/S 773 mmHg 71%
09:00 +6°C° 0 mm 5 m/S 773 mmHg 63%
10:00 +8°C° 0 mm 5 m/S 773 mmHg 55%
11:00 +8°C° 0 mm 5 m/S 773 mmHg 53%
12:00 +9°C° 0 mm 6 m/S 773 mmHg 51%
13:00 +10°C° 0 mm 6 m/S 773 mmHg 49%
14:00 +9°C° 0 mm 6 m/S 772 mmHg 50%
15:00 +9°C° 0 mm 6 m/S 772 mmHg 51%
16:00 +8°C° 0 mm 6 m/S 772 mmHg 52%
17:00 +7°C° 0 mm 6 m/S 772 mmHg 57%
18:00 +6°C° 0 mm 5 m/S 772 mmHg 61%
19:00 +5°C° 0 mm 5 m/S 772 mmHg 65%
20:00 +3°C° 0 mm 5 m/S 772 mmHg 69%
21:00 +3°C° 0 mm 4 m/S 773 mmHg 74%
22:00 +3°C° 0 mm 4 m/S 773 mmHg 78%
23:00 +1°C° 0 mm 4 m/S 773 mmHg 81%
Mehr zeigen

Wir brauchen deine Erlaubnis

Meteoprog und unser Service Anbieter werden persönliche Daten aufbewahren, so wie Cookies, Geräte Bezeichnung oder ähnliche Technologien von deinem Gerät und Prozess, so wie Persönliche Daten Inhalte und Werbungen, genauso wie social Media und den Verkehr zu analysieren.

  • Aufbewahrung und/oder Zugang zu deiner Geräte Informationen.

    Cookies, Geräte Bezeichnung oder andere Informationen, können aufbewahrt oder Zugang zu deinem Gerät erhalten, für den Grund, der oben angegeben wird.

  • Personalisierte Werbung und Inhalte, Messungen, Einblick in das Publikum und Produkt Entwicklung.

    Werbungen und Inhalte können personalisiert werden, basierend auf ein Profil. Mehr Daten können besser personalisierte Werbungen und Inhalte hinzufügen. Werbung und Inhalte können gezeigt und gemessen werden. Einblicke über das Publikum, welche die Werbung gesehen haben und den Inhalt, können abgeleitet werden. So wie Daten können genutzt werden, um es zu verbessern oder die Benutzer Erfahrung zu verbessern das System und die Software.

Wenn du “Ich stimme zu” klickst, erlaubst du uns, die Cookies zu benutzen die Geräte Bezeichnung, den Web oder ähnliche Technologien zu benutzen. Deine Settings, können in deinem Gerät bei deinem Browser geändert werden.

Für den bestimmten Zweck, berechtigten Interessen beruhen darauf, mehr als auf den Inhalt. Du kannst mehr darüber in unseren Privaten und Cookie Politik lesen.